Location: Caltech
(34.1382°N, 118.1253°W)
Time: 18:13:45
(UTC-07:00)

UOSAT-12 - Visible Passes

Search period start: 28 August 2014 00:00
Search period end: 07 September 2014 00:00
Orbit: 595 x 664 km, 64.6° (Epoch: 25 August)

Date Brightness Start Highest point End Pass type
(mag) Time Alt. Az. Time Alt. Az. Time Alt. Az.
28 Aug 9.4 05:21:25 10° SSE 05:25:04 24° ESE 05:28:48 10° ENE visible
29 Aug 7.7 05:40:55 10° SSW 05:45:24 59° ESE 05:50:01 10° NE visible
30 Aug 9.9 04:24:27 10° SE 04:26:21 12° ESE 04:28:15 10° E visible
31 Aug 8.8 04:42:57 12° S 04:46:33 30° ESE 04:50:37 10° NE visible
01 Sep 7.2 05:03:49 20° SSW 05:06:56 76° ESE 05:11:36 10° NNE visible
02 Sep 9.5 03:47:11 16° ESE 03:47:47 16° ESE 03:50:36 10° ENE visible
02 Sep 7.6 05:24:34 19° WSW 05:27:30 45° WNW 05:32:00 10° NNE visible
03 Sep 8.2 04:07:50 38° ESE 04:08:02 38° ESE 04:12:22 10° NE visible
03 Sep 8.7 05:45:13 12° W 05:48:18 21° NW 05:51:51 10° N visible
04 Sep 7.0 04:28:24 85° W 04:28:27 85° WNW 04:33:10 10° NNE visible
05 Sep 9.9 03:11:31 15° ENE 03:11:31 15° ENE 03:12:38 10° ENE visible
05 Sep 7.9 04:48:53 36° WNW 04:49:05 36° NW 04:53:26 10° NNE visible
06 Sep 9.2 03:31:56 25° NE 03:31:56 25° NE 03:34:02 10° NE visible
06 Sep 8.9 05:09:17 17° WNW 05:09:56 17° NW 05:13:04 10° N visible
